[[{"header":{"parameterUnit":"m.s-1","parameterCategory":1,"la1":30.2991,"la2":30.254,"lo1":-89.0895,"lo2":-89.0444,"dy":0.0017,"dx":0.0017,"nx":28,"ny":28,"refTime":"2025-04-07T09:00:00:Z","depth":0,"parameterNumber":2,"parameterNumberName":"U-component_of_WINDS"},"data":[0,0,0,0,0,0,0,0,0,0,0,0,0,0,0,0,0,0,0,0,0,0,0,0,0,0,0,0,0,0,0,0,0,0,0,0,0,0,0,0,0,0,0,0,0,0,0,0,0,0,0,0,0,0,0,0,0,0,3.2286,3.2284,0,3.2153,3.2151,3.215,3.2026,3.2025,3.2023,3.2022,3.188,3.1878,3.1876,0,0,0,0,0,0,0,0,0,0,0,0,0,3.2429,3.2427,3.2286,3.2284,3.2283,3.2153,3.2151,3.2149,3.2027,3.2025,3.2023,3.2021,3.1881,3.1878,3.1875,0,0,0,0,0,0,0,0,0,0,0,0,0,3.2339,3.2426,3.2286,3.2206,3.2197,3.2153,3.2151,3.2149,3.2027,3.2025,3.2023,3.202,3.1882,3.1879,3.1875,3.1898,0,0,3.1864,3.1863,0,0,0,0,0,0,0,0,3.2344,3.2333,3.2219,3.2211,3.2202,3.2104,3.215,3.2065,3.2028,3.2092,3.2022,3.2019,3.1956,3.1946,3.1926,3.1892,3.1886,3.1864,3.1862,3.186,3.1859,0,0,0,0,0,0,0,3.235,3.2338,3.2233,3.2218,3.2207,3.2175,3.216,3.2133,3.2038,3.2086,3.2077,3.2063,3.1951,3.193,3.1922,3.1883,3.1864,3.1861,3.1859,3.1857,3.1862,3.1864,0,0,0,0,0,0,3.2369,3.2344,3.2237,3.2229,3.2269,3.2174,3.2157,3.2137,3.2038,3.2021,3.2065,3.2058,3.1937,3.1926,3.1917,3.1937,3.186,3.1857,3.1855,3.186,3.1862,3.1865,0,0,0,0,0,0,3.2373,3.2361,3.2242,3.2284,3.2267,3.2174,3.2153,3.2136,3.2115,3.2022,3.2004,3.2061,3.1935,3.1922,3.1904,3.1931,3.1855,3.1852,3.1857,3.186,3.1864,3.198,0,0,0,0,0,0,3.2378,3.2363,3.2372,3.2285,3.2265,3.2234,3.2155,3.2135,3.211,3.2099,3.2014,3.1998,3.1932,3.191,3.1901,3.1925,3.1849,3.1854,3.1859,3.1863,3.1973,3.1987,3.1998,0,0,0,0,0,3.2383,3.2408,3.2373,3.2361,3.2274,3.2236,3.2224,3.215,3.2113,3.212,3.2061,3.2,3.193,3.191,3.1898,3.1921,3.1852,3.1857,3.1862,3.1968,3.1984,3.1998,0,0,0,0,0,0,3.2498,3.2396,3.2355,3.2353,3.2305,3.2215,3.2222,3.217,3.2129,3.212,3.2028,3.201,3.2003,3.196,3.1939,3.1939,3.1883,3.1886,3.1967,3.1982,3.1994,3.2004,3.1846,0,0,0,0,0,3.2524,3.2503,3.2413,3.2421,3.2398,3.2315,3.2296,3.2243,3.2188,3.2166,3.2105,3.2053,3.2018,3.1998,3.1961,3.1967,3.1946,3.1977,3.199,3.2001,3.2004,3.2004,3.2017,3.1881,3.1881,3.1881,0,0,3.2575,3.2517,3.2509,3.2442,3.2398,3.2377,3.2298,3.2279,3.2262,3.2162,3.2143,3.2097,3.2032,3.2027,3.2021,3.1991,3.2037,3.2007,3.2016,3.2013,3.2011,3.2023,3.2035,3.1885,3.1884,3.1884,0,0,3.2659,3.2613,3.2614,3.2572,3.2508,3.2452,3.2453,3.2372,3.2338,3.2318,3.2243,3.2221,3.2164,3.2121,3.2092,3.2163,3.2106,3.2153,3.2218,3.222,3.2231,3.2239,3.2264,3.2275,3.2157,3.2157,3.2157,0,3.273,3.2698,3.2621,3.2607,3.258,3.2491,3.2491,3.2454,3.238,3.2363,3.233,3.2259,3.2208,3.2192,3.221,3.2189,3.2186,3.2162,3.2236,3.2244,3.2251,3.2274,3.2283,3.2163,3.2163,3.2162,3.2161,0,3.2789,3.2768,3.2776,3.271,3.2684,3.2677,3.2598,3.2581,3.2531,3.2479,3.246,3.2398,3.2347,3.234,3.229,3.2317,3.23,3.2253,3.2195,3.2271,3.2291,3.2299,3.2172,3.217,3.2168,3.2167,0,0,3.2939,3.2833,3.2837,3.2806,3.2729,3.2711,3.27,3.2653,3.264,3.2593,3.2581,3.2536,3.2493,3.246,3.2405,3.2406,3.2466,3.2359,3.2356,3.2381,3.2492,3.2528,3.2539,3.2429,3.243,3.2431,3.2498,0,3.301,3.2987,3.2919,3.2916,3.2895,3.2812,3.2802,3.2754,3.2706,3.268,3.2625,3.2595,3.254,3.252,3.2518,3.246,3.2487,3.2454,3.2416,3.2415,3.2434,3.255,3.2586,3.2652,3.2505,3.2506,3.2507,0,3.3088,3.3049,3.3046,3.2971,3.296,3.2953,3.2905,3.2882,3.2825,3.279,3.2755,3.2694,3.2678,3.2625,3.26,3.2579,3.256,3.2529,3.253,3.2522,3.2465,3.2545,3.2671,3.2681,3.2518,3.2518,3.2517,0,3.3198,3.3144,3.3135,3.3112,3.3025,3.3022,3.2985,3.2926,3.2903,3.2861,3.2845,3.2801,3.2776,3.2743,3.2672,3.264,3.2656,3.2597,3.2625,3.2627,3.2631,3.2631,3.2755,3.262,3.262,3.2619,3.2619,0,3.3284,3.3285,3.3184,3.3178,3.3177,3.3098,3.3099,3.3054,3.3003,3.2986,3.2911,3.2896,3.2804,3.2779,3.2723,3.2711,3.2701,3.2671,3.2656,3.2678,3.2682,3.2663,3.2656,3.2622,3.2621,3.2621,3.262,0,3.3406,3.3338,3.3323,3.3243,3.3223,3.3226,3.3156,3.3147,3.3096,3.3076,3.3067,3.2985,3.2951,3.2878,3.2824,3.2787,3.2789,3.2762,3.2809,3.2799,3.2831,3.2829,3.2947,3.2958,3.2817,3.2818,3.282,0,3.3464,3.3464,3.3384,3.3369,3.3336,3.3312,3.3289,3.3211,3.319,3.3126,3.3125,3.3087,3.3052,3.3002,3.2937,3.2896,3.2867,3.2912,3.286,3.2882,3.2867,3.2868,3.2868,3.2923,3.2924,3.2926,3.2927,0,3.3576,3.3543,3.3513,3.3473,3.3447,3.3411,3.337,3.3361,3.3274,3.3253,3.322,3.3193,3.314,3.3103,3.3052,3.3012,3.2955,3.2945,3.2949,3.297,3.2997,3.2983,3.2839,3.2942,3.294,3.2939,3.2938,3.2938,3.3667,3.3663,3.3607,3.3577,3.3539,3.3503,3.3491,3.3439,3.3411,3.3363,3.3318,3.3289,3.3233,3.316,3.3124,3.3099,3.3071,3.3077,3.3078,3.3081,3.309,3.3003,3.309,3.3089,3.3089,3.3088,3.3088,0,3.3774,3.3735,3.3708,3.3655,3.3631,3.3582,3.3535,3.3518,3.3494,3.3447,3.3416,3.3377,3.3341,3.3275,3.3232,3.3225,3.3198,3.3217,3.3216,3.3208,3.3118,3.3119,3.324,3.324,3.324,3.324,3.324,3.324,3.3827,3.3818,3.3779,3.375,3.371,3.3683,3.366,3.3627,3.3589,3.3551,3.3522,3.3479,3.3424,3.3378,3.3342,3.3323,3.3311,3.3338,3.3311,3.3228,3.3214,3.32,3.32,3.3336,3.3336,3.3402,3.3403,3.3403]},{"header":{"parameterUnit":"m.s-1","parameterCategory":1,"la1":30.2991,"la2":30.254,"lo1":-89.0895,"lo2":-89.0444,"dy":0.0017,"dx":0.0017,"nx":28,"ny":28,"refTime":"2025-04-07T09:00:00:Z","depth":0,"parameterNumber":3,"parameterNumberName":"V-component_of_WINDS"},"data":[0,0,0,0,0,0,0,0,0,0,0,0,0,0,0,0,0,0,0,0,0,0,0,0,0,0,0,0,0,0,0,0,0,0,0,0,0,0,0,0,0,0,0,0,0,0,0,0,0,0,0,0,0,0,0,0,0,0,-5.8239,-5.8241,0,-5.8408,-5.8409,-5.8411,-5.8379,-5.8376,-5.8373,-5.837,-5.8536,-5.8543,-5.8551,0,0,0,0,0,0,0,0,0,0,0,0,0,-5.7886,-5.7893,-5.8239,-5.8241,-5.8244,-5.8407,-5.841,-5.8412,-5.8379,-5.8376,-5.8372,-5.8368,-5.8534,-5.8543,-5.8551,0,0,0,0,0,0,0,0,0,0,0,0,0,-5.8045,-5.7895,-5.8239,-5.8247,-5.825,-5.8407,-5.841,-5.8412,-5.838,-5.8375,-5.8371,-5.8367,-5.8531,-5.8542,-5.8553,-5.871,0,0,-5.8586,-5.859,0,0,0,0,0,0,0,0,-5.8036,-5.8058,-5.8244,-5.8247,-5.825,-5.8368,-5.8346,-5.8512,-5.8381,-5.833,-5.837,-5.8365,-5.8484,-5.8498,-5.8539,-5.8718,-5.8725,-5.8587,-5.8593,-5.8598,-5.8601,0,0,0,0,0,0,0,-5.8025,-5.8051,-5.8306,-5.8247,-5.825,-5.8241,-5.8259,-5.8377,-5.843,-5.8334,-5.8332,-5.8353,-5.8484,-5.8529,-5.8543,-5.8728,-5.8586,-5.8596,-5.8603,-5.8607,-5.9045,-5.905,0,0,0,0,0,0,-5.8012,-5.8042,-5.83,-5.8311,-5.813,-5.8251,-5.8271,-5.8334,-5.8429,-5.8439,-5.8357,-5.8351,-5.8513,-5.853,-5.8549,-5.8741,-5.8598,-5.8608,-5.8614,-5.904,-5.9046,-5.9052,0,0,0,0,0,0,-5.8005,-5.8036,-5.8293,-5.8176,-5.8208,-5.8262,-5.8334,-5.834,-5.8385,-5.8446,-5.8454,-5.8393,-5.851,-5.8533,-5.8671,-5.8746,-5.8613,-5.8623,-5.9034,-5.9042,-5.9049,-5.9125,0,0,0,0,0,0,-5.7995,-5.8033,-5.8095,-5.8178,-5.8215,-5.8415,-5.8338,-5.8347,-5.8404,-5.8398,-5.8482,-5.8492,-5.8508,-5.8655,-5.8682,-5.8758,-5.8631,-5.9028,-5.9038,-5.9047,-5.9116,-5.9134,-5.915,0,0,0,0,0,-5.7982,-5.8108,-5.8098,-5.8129,-5.8293,-5.8419,-5.844,-5.8458,-5.841,-5.8472,-5.8512,-5.8489,-5.8734,-5.8669,-5.8699,-5.878,-5.9023,-5.9035,-5.9046,-5.9108,-5.9131,-5.9149,0,0,0,0,0,0,-5.803,-5.8119,-5.8109,-5.8265,-5.8335,-5.8413,-5.8491,-5.8481,-5.8564,-5.8555,-5.8572,-5.8591,-5.8731,-5.8769,-5.8696,-5.8938,-5.8871,-5.8889,-5.8908,-5.893,-5.8947,-5.8934,-5.864,0,0,0,0,0,-5.8059,-5.8155,-5.8227,-5.8358,-5.8394,-5.8437,-5.8492,-5.8501,-5.8573,-5.8602,-5.8651,-5.8721,-5.8813,-5.8874,-5.8962,-5.9121,-5.9139,-5.9192,-5.9209,-5.9222,-5.9238,-5.9325,-5.935,-5.909,-5.909,-5.9089,0,0,-5.8119,-5.8179,-5.8239,-5.8369,-5.8424,-5.8523,-5.8462,-5.8568,-5.8641,-5.8617,-5.8751,-5.879,-5.8868,-5.9018,-5.9086,-5.9054,-5.9314,-5.9237,-5.9248,-5.9255,-5.934,-5.9364,-5.9386,-5.9098,-5.9096,-5.9095,0,0,-5.8279,-5.8334,-5.845,-5.8507,-5.8593,-5.8621,-5.8649,-5.873,-5.8755,-5.889,-5.8875,-5.8961,-5.912,-5.9177,-5.9227,-5.9411,-5.9393,-5.9439,-5.9527,-5.9612,-5.9633,-5.9651,-5.9717,-5.974,-5.9454,-5.9454,-5.9454,0,-5.8342,-5.8492,-5.851,-5.862,-5.8677,-5.8663,-5.878,-5.8834,-5.8943,-5.8982,-5.8945,-5.9146,-5.9198,-5.9361,-5.9406,-5.9447,-5.9479,-5.9429,-5.9629,-5.9647,-5.9665,-5.9727,-5.9752,-5.9459,-5.9459,-5.9458,-5.9458,0,-5.8566,-5.867,-5.8753,-5.8861,-5.8928,-5.904,-5.9076,-5.9141,-5.9144,-5.9175,-5.9313,-5.9375,-5.9477,-5.9516,-5.9518,-5.968,-5.9658,-5.9625,-5.9558,-5.9694,-5.9754,-5.9778,-5.9466,-5.9465,-5.9463,-5.9462,0,0,-5.8759,-5.8878,-5.8908,-5.8958,-5.9051,-5.9132,-5.9243,-5.9345,-5.9401,-5.9476,-5.957,-5.9706,-5.9677,-5.9734,-5.9743,-5.9818,-5.996,-5.9776,-5.9778,-5.9808,-6.0142,-6.0166,-6.0194,-5.9949,-5.9954,-5.9958,-6.0135,0,-5.8928,-5.9127,-5.9148,-5.9326,-5.9422,-5.941,-5.9507,-5.9575,-5.9608,-5.9693,-5.9729,-5.9825,-5.9779,-5.9814,-5.9887,-5.9927,-6.0027,-5.9915,-6.0035,-6.0039,-6.0016,-6.0225,-6.0251,-6.0415,-6.0159,-6.0163,-6.0166,0,-5.9151,-5.9236,-5.9424,-5.9506,-5.9547,-5.9635,-5.973,-5.9812,-5.9889,-5.9907,-5.9972,-5.9971,-6.0086,-6.0015,-6.0172,-6.0095,-6.0145,-6.0172,-6.0179,-6.0191,-6.0111,-6.0242,-6.0468,-6.0493,-6.0202,-6.0199,-6.0197,0,-5.9274,-5.9435,-5.9569,-5.9612,-5.971,-5.9772,-5.9816,-5.9888,-5.9948,-6.0031,-6.007,-6.0164,-6.0215,-6.0287,-6.0312,-6.0258,-6.0468,-6.0399,-6.0486,-6.0486,-6.053,-6.0527,-6.0768,-6.0563,-6.0563,-6.0563,-6.0562,0,-5.946,-5.9576,-5.9626,-5.9708,-5.9837,-5.986,-5.9986,-6.0026,-6.0091,-6.018,-6.0175,-6.0258,-6.0286,-6.0373,-6.0393,-6.052,-6.0543,-6.0561,-6.0564,-6.0561,-6.0559,-6.0594,-6.0583,-6.0569,-6.0568,-6.0566,-6.0565,0,-5.9619,-5.9657,-5.9802,-5.9885,-5.9908,-6.0,-6.007,-6.0148,-6.0181,-6.0294,-6.0321,-6.0371,-6.0475,-6.0507,-6.063,-6.0643,-6.0792,-6.0786,-6.0767,-6.0768,-6.0853,-6.0845,-6.1125,-6.1163,-6.0933,-6.0935,-6.0937,0,-5.9735,-5.9824,-5.9917,-5.9978,-6.0025,-6.0122,-6.0184,-6.021,-6.0274,-6.0369,-6.0436,-6.0539,-6.0622,-6.0787,-6.0834,-6.0928,-6.0924,-6.1016,-6.0938,-6.0932,-6.0925,-6.092,-6.0929,-6.103,-6.1032,-6.1034,-6.1036,0,-5.9938,-5.9953,-6.0044,-6.0142,-6.0217,-6.0295,-6.037,-6.0419,-6.0456,-6.0529,-6.0635,-6.07,-6.0828,-6.093,-6.1026,-6.1069,-6.1059,-6.106,-6.1085,-6.1083,-6.1069,-6.1078,-6.0807,-6.1053,-6.1052,-6.105,-6.1049,-6.1049,-6.008,-6.0159,-6.0237,-6.0339,-6.0398,-6.0469,-6.0548,-6.0591,-6.0681,-6.0789,-6.0798,-6.0914,-6.0988,-6.1117,-6.1165,-6.1255,-6.1228,-6.1264,-6.1273,-6.1282,-6.1289,-6.1055,-6.1272,-6.1272,-6.1271,-6.1271,-6.127,0,-6.0282,-6.0333,-6.0426,-6.0533,-6.0613,-6.0599,-6.0681,-6.0748,-6.0851,-6.0922,-6.1005,-6.1128,-6.1227,-6.1282,-6.1381,-6.1442,-6.144,-6.1467,-6.1462,-6.1473,-6.1307,-6.1276,-6.1467,-6.1467,-6.1467,-6.1467,-6.1467,-6.1467,-6.0397,-6.0531,-6.0555,-6.0718,-6.0767,-6.0882,-6.0931,-6.0996,-6.1053,-6.1191,-6.1275,-6.1311,-6.1376,-6.1479,-6.1569,-6.1583,-6.1619,-6.1649,-6.166,-6.1504,-6.1484,-6.1465,-6.1435,-6.1657,-6.1657,-6.1818,-6.1819,-6.182]}]]